Location: Spaichingen
(48.0400°N, 8.4300°E)
Time: 18:49:51
(UTC+02:00)

Tiangong 2 - Pass Details

Date: 23 May 2019
Orbit: 376 x 389 km, 42.8° (Epoch: 19 June)

Event Time Altitude Azimuth Distance (km) Brightness Sun altitude
Rises 23:09:55 0° 259° (WSW) 2,233 5.2 -15.1°
Reaches altitude 10° 23:12:07 10° 248° (WSW) 1,381 4.0 -15.3°
Enters shadow 23:14:30 28° 200° (SSW) 730 2.1 -15.5°
